[[{"header":{"parameterUnit":"m.s-1","parameterCategory":2,"la1":30.2991,"la2":30.254,"lo1":-89.0895,"lo2":-89.0444,"dy":0.0017,"dx":0.0017,"nx":28,"ny":28,"refTime":"2025-04-20T03:00:00:Z","depth":"0","parameterNumber":2,"parameterNumberName":"U-component_of_CURRENTS"},"data":[0,0,0,0,0,0,0,0,0,0,0,0,0,0,0,0,0,0,0,0,0,0,0,0,0,0,0,0,0,0,0,0,0,0,0,0,0,0,0,0,0,0,0,0,0,0,0,0,0,0,0,0,0,0,0,0,0,0,0.1855,0.1855,0,0.183,0.183,0.183,0.1814,0.1814,0.1814,0.1814,0.1782,0.1781,0.178,0,0,0,0,0,0,0,0,0,0,0,0,0,0.1902,0.1901,0.1855,0.1855,0.1854,0.183,0.183,0.183,0.1814,0.1814,0.1814,0.1814,0.1782,0.1781,0.178,0,0,0,0,0,0,0,0,0,0,0,0,0,0.1879,0.19,0.1855,0.1844,0.1843,0.1831,0.183,0.183,0.1814,0.1814,0.1814,0.1814,0.1783,0.1781,0.178,0.1773,0,0,0.1776,0.1776,0,0,0,0,0,0,0,0,0.188,0.1877,0.1846,0.1845,0.1844,0.1826,0.1835,0.181,0.1814,0.1825,0.1814,0.1814,0.1797,0.1794,0.1789,0.1772,0.177,0.1776,0.1775,0.1775,0.1775,0,0,0,0,0,0,0,0.1882,0.1878,0.1844,0.1846,0.1845,0.1846,0.1842,0.183,0.181,0.1824,0.1823,0.1821,0.1796,0.179,0.1788,0.177,0.1776,0.1775,0.1774,0.1774,0.1822,0.1824,0,0,0,0,0,0,0.1885,0.1879,0.1845,0.1844,0.1863,0.1845,0.1841,0.1831,0.1811,0.1808,0.1821,0.1821,0.1792,0.1789,0.1787,0.1848,0.1775,0.1774,0.1773,0.182,0.1822,0.1824,0,0,0,0,0,0,0.1886,0.1882,0.1846,0.1862,0.1858,0.1844,0.1833,0.1831,0.1831,0.1809,0.1806,0.1825,0.1792,0.1788,0.1796,0.1844,0.1773,0.1772,0.1817,0.182,0.1823,0.1925,0,0,0,0,0,0,0.1888,0.1882,0.1877,0.1862,0.1857,0.1851,0.1833,0.183,0.183,0.183,0.1811,0.1808,0.1792,0.1798,0.1795,0.1841,0.1771,0.1815,0.1819,0.1822,0.1919,0.1931,0.1941,0,0,0,0,0,0.1889,0.1878,0.1877,0.1873,0.185,0.1852,0.185,0.1839,0.1831,0.1838,0.1832,0.1809,0.1821,0.1798,0.1794,0.1841,0.1813,0.1817,0.1822,0.1914,0.1928,0.1941,0,0,0,0,0,0,0.1884,0.1875,0.1873,0.1857,0.1862,0.185,0.1849,0.1845,0.1844,0.1844,0.1822,0.1819,0.1852,0.1827,0.1803,0.1867,0.1818,0.1822,0.1889,0.1903,0.1914,0.1911,0.177,0,0,0,0,0,0.1884,0.1879,0.1876,0.1864,0.1869,0.1863,0.1861,0.186,0.1856,0.1856,0.1847,0.1847,0.1866,0.1867,0.1871,0.1891,0.1887,0.1923,0.1934,0.1944,0.194,0.1989,0.2004,0.1839,0.1839,0.1839,0,0,0.1876,0.1872,0.1867,0.1865,0.1865,0.1886,0.1862,0.1867,0.1893,0.1852,0.188,0.1882,0.1881,0.1919,0.1931,0.1903,0.1992,0.195,0.1958,0.1949,0.1996,0.2012,0.2026,0.1842,0.1842,0.1841,0,0,0.1873,0.1861,0.1867,0.1879,0.189,0.1897,0.1905,0.1907,0.1918,0.1943,0.1939,0.1965,0.1971,0.1992,0.2002,0.2072,0.2053,0.208,0.213,0.2179,0.2192,0.2204,0.2233,0.2247,0.2082,0.2083,0.2083,0,0.1871,0.1873,0.187,0.189,0.1905,0.191,0.1935,0.1953,0.1961,0.1979,0.1965,0.2015,0.2011,0.2076,0.2107,0.2099,0.2113,0.208,0.2194,0.2205,0.2216,0.2242,0.2256,0.2088,0.2087,0.2087,0.2086,0,0.1884,0.1892,0.1898,0.1931,0.195,0.1969,0.2002,0.2026,0.2041,0.2059,0.2118,0.2123,0.2149,0.217,0.2158,0.2243,0.2226,0.2207,0.2159,0.2239,0.2261,0.2274,0.2096,0.2094,0.2092,0.2091,0,0,0.1873,0.1902,0.1907,0.1929,0.1975,0.199,0.205,0.2101,0.2139,0.2168,0.2219,0.227,0.2269,0.2279,0.2282,0.2323,0.2418,0.23,0.23,0.2327,0.2521,0.2438,0.2443,0.2425,0.2428,0.243,0.2511,0,0.1891,0.1923,0.1944,0.1993,0.2016,0.2053,0.2107,0.2157,0.2196,0.2247,0.2284,0.2329,0.2315,0.2332,0.2381,0.2404,0.2454,0.2397,0.2439,0.244,0.2356,0.2456,0.237,0.2428,0.2523,0.2525,0.2526,0,0.1906,0.1927,0.1965,0.2022,0.2039,0.2073,0.2154,0.2205,0.2287,0.2318,0.2374,0.2393,0.2465,0.2435,0.2531,0.2497,0.252,0.2536,0.2539,0.2428,0.238,0.2362,0.2447,0.2401,0.2545,0.2544,0.2542,0,0.1893,0.1946,0.1972,0.1991,0.2059,0.2089,0.2136,0.2219,0.226,0.2357,0.2391,0.2476,0.2509,0.2568,0.2598,0.2576,0.2692,0.2661,0.2613,0.2606,0.2521,0.2502,0.2561,0.2741,0.2741,0.274,0.274,0,0.1901,0.1925,0.1961,0.1975,0.2018,0.2079,0.2131,0.2197,0.228,0.2334,0.2417,0.2461,0.2545,0.261,0.2638,0.2665,0.273,0.2638,0.2632,0.2554,0.2538,0.2479,0.244,0.2743,0.2743,0.2742,0.2742,0,0.188,0.1902,0.1932,0.199,0.2002,0.2035,0.2099,0.2145,0.2237,0.231,0.2342,0.2461,0.2541,0.2615,0.2706,0.2697,0.2656,0.2734,0.2624,0.2601,0.2465,0.2432,0.2341,0.2257,0.2684,0.2683,0.2682,0,0.1875,0.1882,0.1917,0.1925,0.1945,0.1985,0.2015,0.2105,0.2158,0.2296,0.2336,0.2437,0.2501,0.2607,0.2623,0.2673,0.2605,0.2605,0.2535,0.2461,0.2423,0.2308,0.2237,0.2478,0.2475,0.2473,0.2471,0,0.1867,0.1868,0.1886,0.1897,0.1914,0.1931,0.1986,0.2007,0.2129,0.2188,0.2279,0.2339,0.2447,0.2456,0.2521,0.2535,0.2457,0.2554,0.2528,0.2306,0.2137,0.2051,0.2412,0.2451,0.2453,0.2455,0.2456,0.2456,0.1856,0.1858,0.1869,0.1876,0.1888,0.1891,0.1878,0.1941,0.1986,0.2066,0.2163,0.2216,0.231,0.2372,0.2376,0.2326,0.2284,0.2266,0.225,0.2153,0.2014,0.2308,0.2297,0.2298,0.2299,0.23,0.2301,0,0.1855,0.1849,0.1853,0.185,0.1836,0.1852,0.187,0.1844,0.1855,0.1945,0.1992,0.2055,0.2089,0.2159,0.2168,0.2075,0.1972,0.2012,0.1872,0.1828,0.216,0.2093,0.1975,0.1975,0.1976,0.1976,0.1976,0.1976,0.1851,0.1843,0.1835,0.1798,0.1786,0.1725,0.1707,0.1677,0.1708,0.1705,0.1736,0.1803,0.1959,0.2048,0.2002,0.1932,0.1758,0.1643,0.1627,0.1919,0.1943,0.1965,0.1897,0.174,0.174,0.1228,0.1224,0.1221]},{"header":{"parameterUnit":"m.s-1","parameterCategory":2,"la1":30.2991,"la2":30.254,"lo1":-89.0895,"lo2":-89.0444,"dy":0.0017,"dx":0.0017,"nx":28,"ny":28,"refTime":"2025-04-20T03:00:00:Z","depth":"0","parameterNumber":3,"parameterNumberName":"V-component_of_CURRENTS"},"data":[0,0,0,0,0,0,0,0,0,0,0,0,0,0,0,0,0,0,0,0,0,0,0,0,0,0,0,0,0,0,0,0,0,0,0,0,0,0,0,0,0,0,0,0,0,0,0,0,0,0,0,0,0,0,0,0,0,0,-0.007,-0.0071,0,-0.0114,-0.0114,-0.0115,-0.0131,-0.013,-0.013,-0.013,-0.0161,-0.0162,-0.0163,0,0,0,0,0,0,0,0,0,0,0,0,0,-0.0008,-0.0009,-0.007,-0.0071,-0.0071,-0.0114,-0.0114,-0.0115,-0.0131,-0.013,-0.013,-0.013,-0.016,-0.0162,-0.0163,0,0,0,0,0,0,0,0,0,0,0,0,0,-0.0041,-0.0009,-0.007,-0.0084,-0.0086,-0.0114,-0.0114,-0.0115,-0.0131,-0.013,-0.013,-0.013,-0.016,-0.0161,-0.0163,-0.0175,0,0,-0.0167,-0.0168,0,0,0,0,0,0,0,0,-0.0039,-0.0044,-0.0082,-0.0083,-0.0085,-0.0117,-0.0104,-0.0135,-0.0131,-0.0114,-0.013,-0.013,-0.0145,-0.0148,-0.0156,-0.0177,-0.0178,-0.0167,-0.0168,-0.0169,-0.0169,0,0,0,0,0,0,0,-0.0037,-0.0042,-0.0087,-0.0082,-0.0085,-0.0091,-0.0096,-0.011,-0.0129,-0.0115,-0.0116,-0.0122,-0.0146,-0.0155,-0.0157,-0.0179,-0.0167,-0.0168,-0.0169,-0.017,-0.021,-0.0211,0,0,0,0,0,0,-0.0032,-0.004,-0.0086,-0.0089,-0.0062,-0.0092,-0.0097,-0.0107,-0.013,-0.0133,-0.0122,-0.0122,-0.0153,-0.0155,-0.0158,-0.0168,-0.0169,-0.017,-0.0171,-0.021,-0.021,-0.0211,0,0,0,0,0,0,-0.0031,-0.0036,-0.0084,-0.0065,-0.0071,-0.0094,-0.0104,-0.0108,-0.0114,-0.0135,-0.0138,-0.0124,-0.0153,-0.0156,-0.0165,-0.017,-0.0171,-0.0172,-0.021,-0.021,-0.0211,-0.0193,0,0,0,0,0,0,-0.0029,-0.0035,-0.0037,-0.0065,-0.0072,-0.0095,-0.0104,-0.0109,-0.0118,-0.0119,-0.0138,-0.0141,-0.0153,-0.0163,-0.0166,-0.0172,-0.0173,-0.021,-0.021,-0.021,-0.0193,-0.0192,-0.0192,0,0,0,0,0,-0.0026,-0.0029,-0.0037,-0.0043,-0.0076,-0.0095,-0.0099,-0.0114,-0.0118,-0.0119,-0.0131,-0.014,-0.0168,-0.0164,-0.0168,-0.0174,-0.0209,-0.021,-0.021,-0.0193,-0.0192,-0.0192,0,0,0,0,0,0,-0.0001,-0.0032,-0.0041,-0.0053,-0.0071,-0.0098,-0.01,-0.0112,-0.0123,-0.0122,-0.014,-0.0144,-0.0154,-0.0166,-0.0161,-0.0188,-0.0192,-0.0193,-0.0177,-0.0177,-0.0176,-0.0164,-0.0174,0,0,0,0,0,0.0003,-0.0008,-0.0037,-0.0044,-0.0052,-0.0076,-0.0085,-0.0096,-0.0111,-0.0116,-0.013,-0.0146,-0.0162,-0.0169,-0.0183,-0.0196,-0.0201,-0.0204,-0.0203,-0.0203,-0.0196,-0.0217,-0.0217,-0.0212,-0.0212,-0.0212,0,0,0.0011,-0.0007,-0.0012,-0.0039,-0.0054,-0.006,-0.008,-0.0092,-0.0095,-0.0118,-0.0123,-0.0142,-0.0164,-0.0178,-0.0184,-0.0187,-0.0205,-0.0203,-0.0203,-0.0196,-0.0217,-0.0218,-0.0218,-0.0213,-0.0213,-0.0213,0,0,0.0025,0.0007,0.0003,-0.0009,-0.0031,-0.0046,-0.0048,-0.0074,-0.0083,-0.0094,-0.0113,-0.0133,-0.0153,-0.0173,-0.0186,-0.0191,-0.02,-0.0198,-0.0186,-0.0207,-0.0207,-0.0208,-0.0202,-0.0202,-0.0199,-0.0199,-0.0199,0,0.0038,0.0028,0.0001,-0.0003,-0.0006,-0.0037,-0.0034,-0.0051,-0.0075,-0.0079,-0.0089,-0.0127,-0.0151,-0.0171,-0.0178,-0.019,-0.0192,-0.0186,-0.0205,-0.0206,-0.0207,-0.0201,-0.0201,-0.0198,-0.0199,-0.0199,-0.0199,0,0.0049,0.0044,0.0043,0.0028,0.0021,0.0018,-0.0007,-0.0015,-0.003,-0.0048,-0.0069,-0.0106,-0.0125,-0.0147,-0.0165,-0.0186,-0.0182,-0.0201,-0.0205,-0.0206,-0.02,-0.0201,-0.0197,-0.0198,-0.0198,-0.0198,0,0,0.0075,0.0055,0.0056,0.0061,0.0039,0.0038,0.0031,0.0018,0.0026,-0.0016,-0.0009,-0.0068,-0.0089,-0.0105,-0.0139,-0.0168,-0.0182,-0.0186,-0.0187,-0.0174,-0.0205,-0.0194,-0.0194,-0.0204,-0.0205,-0.0205,-0.0194,0,0.0094,0.01,0.0083,0.0099,0.0103,0.0081,0.0083,0.0068,0.0054,0.0052,-0.0004,-0.0015,-0.0073,-0.008,-0.0121,-0.0156,-0.0185,-0.0181,-0.021,-0.021,-0.0197,-0.0195,-0.0169,-0.0156,-0.0194,-0.0194,-0.0194,0,0.0114,0.0117,0.0134,0.0142,0.0144,0.0151,0.0162,0.016,0.014,0.0128,0.0096,0.0061,0.0016,-0.0034,-0.0107,-0.0099,-0.0152,-0.0191,-0.0192,-0.0188,-0.0201,-0.0164,-0.0156,-0.0247,-0.0196,-0.0196,-0.0195,0,0.0153,0.0156,0.0176,0.0177,0.0177,0.019,0.0195,0.0187,0.0204,0.0183,0.0202,0.0129,0.0122,0.0032,-0.0054,-0.0078,-0.0122,-0.0162,-0.0204,-0.0203,-0.0189,-0.0185,-0.0267,-0.0223,-0.0223,-0.0223,-0.0223,0,0.0183,0.0199,0.0199,0.0212,0.0247,0.0237,0.0276,0.0269,0.0284,0.0326,0.025,0.0273,0.0136,0.0094,-0.0012,-0.0091,-0.0089,-0.0193,-0.0203,-0.018,-0.0177,-0.0262,-0.0334,-0.0223,-0.0223,-0.0223,-0.0223,0,0.022,0.0215,0.0242,0.0256,0.0266,0.0296,0.0335,0.037,0.0374,0.0435,0.0435,0.0395,0.0342,0.0215,0.0094,-0.0011,-0.0164,-0.0144,-0.0094,-0.0098,-0.0234,-0.0306,-0.0409,-0.0468,-0.0186,-0.0185,-0.0185,0,0.0238,0.0254,0.0284,0.0313,0.0322,0.0362,0.0399,0.0411,0.0463,0.0518,0.0565,0.0532,0.0527,0.0364,0.017,0.0006,-0.013,-0.0094,-0.0155,-0.0231,-0.0318,-0.0382,-0.0429,-0.0121,-0.012,-0.012,-0.0119,0,0.0279,0.0288,0.0314,0.0372,0.0417,0.0465,0.0525,0.0578,0.0622,0.0682,0.0763,0.0767,0.0626,0.0476,0.0242,0.0108,-0.0166,-0.0087,-0.0187,-0.0291,-0.0345,-0.0407,-0.0124,-0.0114,-0.0114,-0.0115,-0.0115,-0.0115,0.0319,0.0346,0.0386,0.0439,0.0493,0.0571,0.0621,0.0704,0.0799,0.0899,0.0906,0.0933,0.0728,0.0417,0.0232,-0.0083,-0.0133,-0.0194,-0.0275,-0.0332,-0.0398,-0.0089,-0.0083,-0.0083,-0.0083,-0.0084,-0.0084,0,0.0378,0.04,0.0453,0.052,0.0585,0.0603,0.0709,0.077,0.0893,0.0988,0.1052,0.0979,0.0722,0.043,0.003,-0.0216,-0.0341,-0.0361,-0.0453,-0.0496,-0.0226,-0.0232,-0.023,-0.023,-0.023,-0.023,-0.023,-0.023,0.0414,0.0468,0.0484,0.0584,0.0635,0.0715,0.0774,0.0876,0.0957,0.1062,0.1088,0.1099,0.092,0.0231,-0.0254,-0.0392,-0.0609,-0.0652,-0.0767,-0.0584,-0.0574,-0.0566,-0.0587,-0.066,-0.0661,-0.0995,-0.0998,-0.1001]}],[{"header":{"parameterUnit":"m.s-1","parameterCategory":2,"la1":30.2991,"la2":30.254,"lo1":-89.0895,"lo2":-89.0444,"dy":0.0017,"dx":0.0017,"nx":28,"ny":28,"refTime":"2025-04-20T03:00:00:Z","depth":"2","parameterNumber":2,"parameterNumberName":"U-component_of_CURRENTS"},"data":[0,0,0,0,0,0,0,0,0,0,0,0,0,0,0,0,0,0,0,0,0,0,0,0,0,0,0,0,0,0,0,0,0,0,0,0,0,0,0,0,0,0,0,0,0,0,0,0,0,0,0,0,0,0,0,0,0,0,0.189,0.189,0,0.1868,0.1867,0.1867,0.1854,0.1854,0.1854,0.1854,0.1826,0.1825,0.1824,0,0,0,0,0,0,0,0,0,0,0,0,0,0.1929,0.1928,0.189,0.189,0.1889,0.1868,0.1867,0.1867,0.1854,0.1854,0.1854,0.1854,0.1826,0.1825,0.1824,0,0,0,0,0,0,0,0,0,0,0,0,0,0.1909,0.1928,0.189,0.188,0.1879,0.1868,0.1867,0.1867,0.1854,0.1854,0.1854,0.1854,0.1826,0.1825,0.1824,0.1818,0,0,0.1821,0.1821,0,0,0,0,0,0,0,0,0.1911,0.1908,0.1882,0.1881,0.188,0.1864,0.1871,0.1851,0.1854,0.1863,0.1854,0.1854,0.1838,0.1836,0.1832,0.1817,0.1816,0.1821,0.182,0.182,0.182,0,0,0,0,0,0,0,0.1912,0.1909,0.1881,0.1882,0.188,0.188,0.1877,0.1867,0.1851,0.1862,0.1861,0.1859,0.1838,0.1833,0.1831,0.1816,0.1821,0.182,0.1819,0.1819,0.1872,0.1874,0,0,0,0,0,0,0.1915,0.191,0.1881,0.188,0.1896,0.1879,0.1876,0.1869,0.1851,0.1848,0.1859,0.1859,0.1835,0.1832,0.183,0.1895,0.182,0.1819,0.1818,0.187,0.1872,0.1874,0,0,0,0,0,0,0.1916,0.1912,0.1882,0.1895,0.1891,0.1879,0.187,0.1868,0.187,0.1849,0.1846,0.1864,0.1834,0.1831,0.184,0.189,0.1818,0.1817,0.1867,0.187,0.1873,0.1977,0,0,0,0,0,0,0.1917,0.1913,0.1909,0.1895,0.1891,0.1887,0.187,0.1868,0.1869,0.1868,0.1852,0.1849,0.1834,0.1842,0.1839,0.1888,0.1817,0.1865,0.1869,0.1872,0.1971,0.1983,0.1994,0,0,0,0,0,0.1918,0.1909,0.1908,0.1905,0.1885,0.1887,0.1885,0.1876,0.1869,0.1876,0.1872,0.185,0.1865,0.1842,0.1838,0.1888,0.1863,0.1867,0.1872,0.1966,0.1981,0.1994,0,0,0,0,0,0,0.1913,0.1906,0.1906,0.1892,0.1897,0.1885,0.1886,0.1882,0.1882,0.1883,0.1863,0.1861,0.1896,0.1871,0.1847,0.1916,0.1865,0.1869,0.1938,0.1952,0.1963,0.196,0.1816,0,0,0,0,0,0.1913,0.191,0.1908,0.1899,0.1904,0.1899,0.1898,0.1896,0.1894,0.1893,0.1887,0.1888,0.1911,0.1913,0.1919,0.1941,0.1936,0.1975,0.1986,0.1996,0.1992,0.2041,0.2057,0.1889,0.1889,0.1889,0,0,0.1907,0.1904,0.1901,0.19,0.1901,0.1923,0.1898,0.1904,0.1933,0.189,0.1923,0.1925,0.1926,0.1967,0.198,0.1951,0.2045,0.2002,0.201,0.2001,0.2048,0.2064,0.2078,0.1892,0.1892,0.1891,0,0,0.1905,0.1896,0.1903,0.1917,0.1928,0.1935,0.1942,0.1945,0.1959,0.1985,0.1982,0.2009,0.2019,0.2041,0.2053,0.2125,0.2107,0.2135,0.2185,0.2234,0.2248,0.226,0.2289,0.2302,0.2137,0.2137,0.2137,0,0.1904,0.1907,0.1906,0.1927,0.1944,0.1948,0.1975,0.1995,0.2004,0.2023,0.2009,0.2062,0.2061,0.2129,0.216,0.2153,0.2167,0.2134,0.2249,0.2261,0.2272,0.2298,0.2312,0.2143,0.2142,0.2141,0.2141,0,0.1918,0.1928,0.1935,0.1971,0.1993,0.2012,0.2048,0.2074,0.209,0.2109,0.2169,0.2175,0.2202,0.2225,0.2213,0.23,0.2282,0.2263,0.2215,0.2295,0.2317,0.233,0.2151,0.2149,0.2147,0.2146,0,0,0.1907,0.1939,0.1945,0.1967,0.2019,0.2034,0.21,0.2153,0.2192,0.2223,0.2275,0.233,0.2325,0.2337,0.234,0.2381,0.2477,0.2357,0.2357,0.2384,0.258,0.248,0.2484,0.2484,0.2487,0.2489,0.2569,0,0.1926,0.1959,0.1983,0.2035,0.2059,0.21,0.2161,0.2213,0.2253,0.2305,0.2343,0.2388,0.2375,0.2391,0.2439,0.2462,0.2513,0.2456,0.2497,0.2497,0.2399,0.2496,0.2277,0.2323,0.2581,0.2583,0.2585,0,0.1941,0.1962,0.2003,0.2063,0.2081,0.2119,0.2205,0.226,0.2345,0.2376,0.2432,0.2451,0.2524,0.2494,0.259,0.2556,0.2579,0.2595,0.2598,0.2471,0.2421,0.2282,0.2335,0.2606,0.2604,0.2602,0.2601,0,0.1925,0.1979,0.2007,0.2029,0.2102,0.2134,0.2184,0.2272,0.2317,0.2415,0.2448,0.2534,0.2567,0.2626,0.2655,0.2634,0.2749,0.272,0.2658,0.265,0.2451,0.2421,0.28,0.28,0.28,0.28,0.28,0,0.193,0.1958,0.1994,0.2011,0.2055,0.2122,0.2178,0.2245,0.2333,0.2389,0.2473,0.2518,0.2603,0.2666,0.2695,0.2713,0.2786,0.2681,0.2673,0.2481,0.2454,0.2676,0.2661,0.2803,0.2802,0.2802,0.2801,0,0.191,0.1933,0.1967,0.2028,0.2039,0.2076,0.2146,0.2194,0.229,0.2365,0.2396,0.2517,0.2588,0.2661,0.2751,0.2741,0.278,0.277,0.2527,0.2488,0.2639,0.2628,0.2709,0.2706,0.2704,0.2702,0.2701,0,0.1906,0.1912,0.1954,0.1963,0.1984,0.2027,0.2059,0.2154,0.2209,0.2349,0.2389,0.2482,0.2529,0.2626,0.2624,0.266,0.2732,0.2479,0.2392,0.265,0.2635,0.2627,0.262,0.2181,0.2176,0.2171,0.2167,0,0.1898,0.1904,0.1925,0.1937,0.1956,0.1976,0.2032,0.2054,0.2179,0.2237,0.2327,0.2371,0.2444,0.2366,0.2407,0.2399,0.2451,0.2382,0.2743,0.2226,0.2156,0.2139,0.2149,0.2126,0.213,0.2133,0.2135,0.2137,0.1891,0.1895,0.1909,0.1919,0.1933,0.1937,0.1925,0.1981,0.2026,0.2083,0.2182,0.2174,0.2192,0.212,0.2073,0.2042,0.2209,0.212,0.2133,0.2152,0.2064,0.1993,0.1916,0.1918,0.1921,0.1923,0.1925,0,0.1882,0.1886,0.1892,0.1895,0.1887,0.19,0.1918,0.1896,0.1897,0.1922,0.1943,0.1779,0.1716,0.1746,0.1631,0.1642,0.1627,0.1573,0.1532,0.1574,0.1612,0.1496,0.1197,0.1194,0.1192,0.119,0,0,0.1879,0.1872,0.1868,0.1847,0.1838,0.179,0.1771,0.1734,0.173,0.1632,0.1569,0.1638,0.1702,0.1425,0.1387,0.1273,0.1416,0.1223,0.1808,0.1803,0.1838,0.193,0.1799,0,0,0,0,0]},{"header":{"parameterUnit":"m.s-1","parameterCategory":2,"la1":30.2991,"la2":30.254,"lo1":-89.0895,"lo2":-89.0444,"dy":0.0017,"dx":0.0017,"nx":28,"ny":28,"refTime":"2025-04-20T03:00:00:Z","depth":"2","parameterNumber":3,"parameterNumberName":"V-component_of_CURRENTS"},"data":[0,0,0,0,0,0,0,0,0,0,0,0,0,0,0,0,0,0,0,0,0,0,0,0,0,0,0,0,0,0,0,0,0,0,0,0,0,0,0,0,0,0,0,0,0,0,0,0,0,0,0,0,0,0,0,0,0,0,-0.0103,-0.0104,0,-0.0147,-0.0147,-0.0148,-0.0163,-0.0163,-0.0163,-0.0163,-0.0192,-0.0193,-0.0194,0,0,0,0,0,0,0,0,0,0,0,0,0,-0.0045,-0.0046,-0.0103,-0.0104,-0.0104,-0.0147,-0.0147,-0.0148,-0.0163,-0.0163,-0.0163,-0.0163,-0.0192,-0.0193,-0.0194,0,0,0,0,0,0,0,0,0,0,0,0,0,-0.0077,-0.0046,-0.0103,-0.0117,-0.0119,-0.0147,-0.0147,-0.0148,-0.0163,-0.0163,-0.0163,-0.0163,-0.0192,-0.0193,-0.0194,-0.0207,0,0,-0.0199,-0.0199,0,0,0,0,0,0,0,0,-0.0076,-0.008,-0.0115,-0.0116,-0.0118,-0.015,-0.0138,-0.0167,-0.0163,-0.0146,-0.0163,-0.0163,-0.0177,-0.018,-0.0188,-0.0208,-0.021,-0.0199,-0.02,-0.02,-0.0201,0,0,0,0,0,0,0,-0.0073,-0.0078,-0.012,-0.0115,-0.0118,-0.0126,-0.013,-0.0143,-0.0162,-0.0148,-0.0149,-0.0154,-0.0178,-0.0187,-0.0189,-0.021,-0.0199,-0.02,-0.0201,-0.0201,-0.0239,-0.0239,0,0,0,0,0,0,-0.0068,-0.0076,-0.0119,-0.0121,-0.0096,-0.0127,-0.0131,-0.014,-0.0162,-0.0165,-0.0154,-0.0155,-0.0185,-0.0187,-0.019,-0.0199,-0.02,-0.0201,-0.0202,-0.0239,-0.0239,-0.0239,0,0,0,0,0,0,-0.0067,-0.0072,-0.0117,-0.0099,-0.0106,-0.0128,-0.0137,-0.0141,-0.0146,-0.0167,-0.017,-0.0156,-0.0185,-0.0188,-0.0196,-0.02,-0.0202,-0.0203,-0.0239,-0.0239,-0.0239,-0.0221,0,0,0,0,0,0,-0.0065,-0.0071,-0.0072,-0.0099,-0.0107,-0.0128,-0.0137,-0.0142,-0.015,-0.0151,-0.017,-0.0173,-0.0185,-0.0194,-0.0198,-0.0202,-0.0204,-0.0238,-0.0239,-0.0239,-0.0221,-0.022,-0.022,0,0,0,0,0,-0.0063,-0.0064,-0.0072,-0.0077,-0.0109,-0.0128,-0.0132,-0.0147,-0.015,-0.0152,-0.0163,-0.0172,-0.0199,-0.0195,-0.0199,-0.0204,-0.0238,-0.0239,-0.0239,-0.0221,-0.0221,-0.022,0,0,0,0,0,0,-0.0038,-0.0067,-0.0076,-0.0085,-0.0103,-0.013,-0.0132,-0.0144,-0.0155,-0.0154,-0.0172,-0.0176,-0.0185,-0.0197,-0.0192,-0.0217,-0.0221,-0.0223,-0.0207,-0.0206,-0.0205,-0.0193,-0.0206,0,0,0,0,0,-0.0034,-0.0042,-0.007,-0.0076,-0.0084,-0.0108,-0.0117,-0.0128,-0.0143,-0.0148,-0.0162,-0.0177,-0.0192,-0.0199,-0.0213,-0.0224,-0.0229,-0.0231,-0.0231,-0.023,-0.0223,-0.0243,-0.0243,-0.0241,-0.0241,-0.0241,0,0,-0.0025,-0.0042,-0.0046,-0.0071,-0.0086,-0.0092,-0.0112,-0.0123,-0.0127,-0.015,-0.0154,-0.0173,-0.0194,-0.0207,-0.0213,-0.0216,-0.0231,-0.023,-0.023,-0.0223,-0.0244,-0.0244,-0.0244,-0.0241,-0.0241,-0.0241,0,0,-0.001,-0.0027,-0.0028,-0.0041,-0.0063,-0.0078,-0.0079,-0.0105,-0.0114,-0.0124,-0.0143,-0.0162,-0.0181,-0.0201,-0.0213,-0.0217,-0.0226,-0.0223,-0.0211,-0.0231,-0.0231,-0.0231,-0.0225,-0.0225,-0.0224,-0.0224,-0.0224,0,0.0003,-0.0004,-0.003,-0.0034,-0.0037,-0.0068,-0.0064,-0.0082,-0.0106,-0.0109,-0.0119,-0.0155,-0.0178,-0.0197,-0.0203,-0.0215,-0.0218,-0.0212,-0.0229,-0.023,-0.023,-0.0224,-0.0225,-0.0223,-0.0224,-0.0224,-0.0224,0,0.0015,0.0012,0.0011,-0.0003,-0.001,-0.0013,-0.0038,-0.0045,-0.0059,-0.0076,-0.0095,-0.0132,-0.015,-0.0171,-0.0189,-0.0209,-0.0205,-0.0224,-0.0229,-0.0229,-0.0223,-0.0224,-0.0222,-0.0223,-0.0223,-0.0223,0,0,0.0042,0.0024,0.0026,0.0031,0.0009,0.0008,0.0002,-0.001,-0.0001,-0.0042,-0.0033,-0.009,-0.0112,-0.0127,-0.0161,-0.019,-0.0203,-0.0208,-0.021,-0.0197,-0.0225,-0.0218,-0.0217,-0.0226,-0.0226,-0.0226,-0.0214,0,0.0063,0.007,0.0054,0.007,0.0075,0.0053,0.0056,0.0042,0.0029,0.0029,-0.0026,-0.0036,-0.0095,-0.0101,-0.0141,-0.0177,-0.0205,-0.0203,-0.0231,-0.0231,-0.0221,-0.0219,-0.0216,-0.0205,-0.0215,-0.0215,-0.0215,0,0.0082,0.0086,0.0106,0.0116,0.0118,0.0124,0.0138,0.0137,0.0118,0.0107,0.0076,0.0041,-0.0004,-0.0054,-0.0126,-0.0119,-0.0171,-0.0211,-0.0212,-0.0211,-0.0225,-0.021,-0.0206,-0.0216,-0.0216,-0.0216,-0.0216,0,0.012,0.0125,0.0148,0.0149,0.0152,0.0166,0.0172,0.0165,0.0183,0.0162,0.0182,0.011,0.0103,0.0014,-0.0073,-0.0097,-0.014,-0.0181,-0.0225,-0.0224,-0.023,-0.0229,-0.0241,-0.0241,-0.0241,-0.0241,-0.0241,0,0.0146,0.0167,0.0171,0.0184,0.0223,0.0212,0.0253,0.0247,0.0263,0.0305,0.023,0.0253,0.0118,0.0075,-0.0031,-0.0111,-0.0107,-0.0215,-0.0224,-0.0222,-0.022,-0.0241,-0.0242,-0.024,-0.024,-0.0241,-0.0241,0,0.0181,0.0179,0.0212,0.023,0.024,0.0272,0.0312,0.0348,0.0353,0.0412,0.0413,0.0374,0.0319,0.0192,0.0072,-0.0031,-0.0128,-0.0165,-0.0139,-0.0147,-0.021,-0.0209,-0.0211,-0.021,-0.021,-0.021,-0.021,0,0.02,0.0216,0.0253,0.0282,0.0294,0.0336,0.0372,0.0387,0.0438,0.0495,0.054,0.0505,0.0488,0.0325,0.0135,-0.0031,-0.0082,-0.0144,-0.0208,-0.0199,-0.0208,-0.0208,-0.0208,-0.0201,-0.0201,-0.0201,-0.0201,0,0.024,0.0251,0.0279,0.0338,0.0384,0.0435,0.0494,0.0547,0.0592,0.0647,0.0721,0.0713,0.0569,0.0394,0.0163,0.0038,-0.0121,-0.0145,-0.0139,-0.021,-0.019,-0.0199,-0.0199,-0.0199,-0.0199,-0.0199,-0.0199,-0.0199,0.0277,0.0306,0.0344,0.0402,0.0458,0.0536,0.0587,0.0652,0.0739,0.0803,0.0826,0.0797,0.0626,0.0311,0.013,-0.0081,-0.0082,-0.0189,-0.019,-0.0191,-0.0193,-0.0174,-0.0178,-0.0178,-0.0178,-0.0179,-0.0179,0,0.0309,0.0354,0.0407,0.0479,0.054,0.0567,0.0672,0.0691,0.0785,0.0835,0.0866,0.0689,0.0529,0.0327,0.0024,-0.0145,-0.0176,-0.0211,-0.0221,-0.0221,-0.0221,-0.0226,-0.022,-0.0221,-0.0221,-0.0222,0,0,0.0335,0.0381,0.0403,0.0523,0.0587,0.0649,0.0708,0.0736,0.076,0.0762,0.0755,0.0746,0.0551,0.0322,0.0104,-0.0065,-0.0115,-0.0105,-0.0055,-0.0042,-0.0041,-0.0191,-0.0196,0,0,0,0,0]}],[{"header":{"parameterUnit":"m.s-1","parameterCategory":2,"la1":30.2991,"la2":30.254,"lo1":-89.0895,"lo2":-89.0444,"dy":0.0017,"dx":0.0017,"nx":28,"ny":28,"refTime":"2025-04-20T03:00:00:Z","depth":"4","parameterNumber":2,"parameterNumberName":"U-component_of_CURRENTS"},"data":[0,0,0,0,0,0,0,0,0,0,0,0,0,0,0,0,0,0,0,0,0,0,0,0,0,0,0,0,0,0,0,0,0,0,0,0,0,0,0,0,0,0,0,0,0,0,0,0,0,0,0,0,0,0,0,0,0,0,0.1183,0.1184,0,0.1225,0.1226,0.1226,0.1265,0.1265,0.1266,0.1267,0.131,0.1311,0.1311,0,0,0,0,0,0,0,0,0,0,0,0,0,0.1109,0.111,0.1183,0.1184,0.1185,0.1225,0.1226,0.1226,0.1265,0.1265,0.1266,0.1267,0.131,0.131,0.1311,0,0,0,0,0,0,0,0,0,0,0,0,0,0.1143,0.111,0.1183,0.1211,0.1214,0.1225,0.1226,0.1226,0.1264,0.1265,0.1266,0.1267,0.131,0.131,0.1311,0.1294,0,0,0.1313,0.1314,0,0,0,0,0,0,0,0,0.1141,0.1145,0.1206,0.1209,0.1212,0.1243,0.1215,0.125,0.1264,0.1242,0.1267,0.1268,0.1289,0.1291,0.1293,0.1296,0.1298,0.1313,0.1314,0.1314,0.1314,0,0,0,0,0,0,0,0.1138,0.1143,0.1197,0.1207,0.1211,0.1212,0.1218,0.1222,0.1257,0.1244,0.1248,0.1256,0.129,0.1292,0.1294,0.1299,0.1313,0.1314,0.1315,0.1315,0.1367,0.1367,0,0,0,0,0,0,0.1139,0.1141,0.1196,0.1199,0.1181,0.1213,0.1219,0.123,0.1257,0.1263,0.1255,0.1258,0.129,0.1293,0.1296,0.1344,0.1314,0.1315,0.1315,0.1366,0.1367,0.1368,0,0,0,0,0,0,0.1137,0.1143,0.1194,0.1173,0.118,0.1213,0.1225,0.123,0.1261,0.1266,0.1272,0.1285,0.1291,0.1295,0.1323,0.1344,0.1315,0.1316,0.1365,0.1366,0.1367,0.1398,0,0,0,0,0,0,0.1135,0.1142,0.1162,0.1173,0.1181,0.1219,0.1224,0.123,0.1264,0.1269,0.1292,0.1296,0.1292,0.1322,0.1323,0.1344,0.1316,0.1363,0.1365,0.1367,0.1396,0.14,0.1404,0,0,0,0,0,0.1132,0.1152,0.1163,0.117,0.1203,0.122,0.1224,0.1249,0.1265,0.128,0.1298,0.1296,0.1334,0.1323,0.1325,0.1346,0.1362,0.1365,0.1367,0.1394,0.14,0.1404,0,0,0,0,0,0,0.1134,0.1159,0.117,0.1199,0.1217,0.1228,0.1251,0.1264,0.1289,0.1302,0.1305,0.1309,0.1341,0.134,0.1327,0.1367,0.1349,0.1352,0.137,0.1375,0.1379,0.1375,0.1317,0,0,0,0,0,0.1141,0.1165,0.1183,0.1209,0.1221,0.124,0.1256,0.127,0.1288,0.1302,0.1318,0.1334,0.1345,0.1359,0.1366,0.1387,0.1396,0.1404,0.1408,0.1411,0.141,0.1445,0.1453,0.1375,0.1375,0.1375,0,0,0.1149,0.1168,0.1182,0.1211,0.1229,0.124,0.1253,0.1283,0.1296,0.1301,0.1335,0.135,0.1354,0.1377,0.1392,0.1384,0.144,0.1414,0.1417,0.1414,0.1448,0.1456,0.1463,0.1376,0.1376,0.1376,0,0,0.1163,0.1194,0.1213,0.1227,0.1258,0.1264,0.1278,0.1303,0.1324,0.1349,0.1359,0.139,0.1406,0.1417,0.1421,0.1454,0.146,0.1461,0.1481,0.1516,0.1522,0.1528,0.1556,0.1564,0.1465,0.1465,0.1465,0,0.1173,0.1196,0.1221,0.1236,0.1251,0.1276,0.129,0.1306,0.1337,0.1357,0.1367,0.1413,0.1422,0.1449,0.1461,0.1463,0.1482,0.1461,0.1521,0.1527,0.1533,0.156,0.1569,0.1467,0.1466,0.1466,0.1466,0,0.1184,0.1212,0.1226,0.125,0.1268,0.1288,0.1307,0.1335,0.1363,0.1378,0.1427,0.1446,0.1476,0.1486,0.1481,0.1527,0.1528,0.1521,0.1507,0.1542,0.1569,0.1577,0.1469,0.1469,0.1468,0.1468,0,0,0.1178,0.1225,0.1232,0.1247,0.1279,0.129,0.1319,0.1348,0.1374,0.1414,0.1451,0.1482,0.151,0.1517,0.1531,0.1559,0.1617,0.1559,0.156,0.1585,0.1696,0.1596,0.1595,0.1626,0.1627,0.1628,0.1702,0,0.118,0.1212,0.1233,0.1259,0.1274,0.1305,0.1327,0.1359,0.1392,0.1433,0.1472,0.151,0.1516,0.1544,0.1576,0.1611,0.164,0.1597,0.166,0.1661,0.1566,0.1602,0.1633,0.1708,0.171,0.1711,0.1712,0,0.1176,0.12,0.123,0.127,0.1281,0.1299,0.1345,0.137,0.1425,0.1459,0.1511,0.1536,0.1598,0.1591,0.1678,0.1655,0.1677,0.1695,0.1699,0.1597,0.1576,0.1664,0.1727,0.1726,0.1725,0.1724,0.1723,0,0.115,0.1195,0.1222,0.1234,0.1279,0.1306,0.1335,0.1386,0.1414,0.1484,0.1518,0.1585,0.164,0.1681,0.173,0.1712,0.1814,0.1793,0.1721,0.1715,0.177,0.1763,0.1839,0.1839,0.1839,0.1839,0.1838,0,0.1131,0.1156,0.1219,0.1228,0.1263,0.1303,0.1343,0.1385,0.1445,0.1478,0.1539,0.1576,0.1666,0.1726,0.1752,0.1771,0.1841,0.1727,0.1727,0.1782,0.1776,0.1776,0.1768,0.1841,0.1841,0.184,0.184,0,0.1096,0.1139,0.1171,0.123,0.1252,0.128,0.1344,0.1366,0.1439,0.1488,0.1514,0.1602,0.1681,0.1751,0.1831,0.1797,0.182,0.1804,0.1871,0.1873,0.1691,0.1684,0.1723,0.172,0.1718,0.1716,0.1714,0,0.1073,0.1091,0.1164,0.1188,0.1219,0.1266,0.1294,0.1362,0.138,0.1485,0.1497,0.16,0.1651,0.1694,0.1772,0.1818,0.1795,0.1792,0.1718,0.1684,0.168,0.1677,0.1673,0.171,0.1709,0.1709,0.1708,0,0.1028,0.1072,0.1103,0.1148,0.1185,0.1208,0.1253,0.1256,0.1332,0.1414,0.1445,0.1481,0.157,0.1631,0.1686,0.1709,0.1784,0.1765,0.1769,0.17,0.1668,0.1666,0.1665,0.1699,0.1701,0.1701,0.1702,0,0.0999,0.1014,0.1063,0.1091,0.1136,0.1132,0.1162,0.1181,0.1209,0.1317,0.1331,0.1447,0.155,0.1576,0.1624,0.1646,0.1614,0.1551,0.1566,0.1576,0.1494,0.143,0.139,0,0,0,0,0,0.0959,0.097,0.0996,0.1015,0.1054,0.1072,0.1123,0.115,0.1225,0.1214,0.1263,0.1331,0.1396,0.1458,0.1454,0.1568,0.1627,0.1554,0.1562,0.1651,0.1661,0.1578,0,0,0,0,0,0,0.0935,0.0968,0.0971,0.0941,0.0939,0.0957,0.0986,0.1038,0.1027,0.1124,0.1171,0.1251,0.1342,0.1394,0.143,0.145,0.1427,0.1631,0.1627,0.1646,0.1655,0.1663,0.1581,0,0,0,0,0]},{"header":{"parameterUnit":"m.s-1","parameterCategory":2,"la1":30.2991,"la2":30.254,"lo1":-89.0895,"lo2":-89.0444,"dy":0.0017,"dx":0.0017,"nx":28,"ny":28,"refTime":"2025-04-20T03:00:00:Z","depth":"4","parameterNumber":3,"parameterNumberName":"V-component_of_CURRENTS"},"data":[0,0,0,0,0,0,0,0,0,0,0,0,0,0,0,0,0,0,0,0,0,0,0,0,0,0,0,0,0,0,0,0,0,0,0,0,0,0,0,0,0,0,0,0,0,0,0,0,0,0,0,0,0,0,0,0,0,0,-0.0087,-0.0087,0,-0.0119,-0.0119,-0.0119,-0.0138,-0.0138,-0.0138,-0.0138,-0.0162,-0.0162,-0.0163,0,0,0,0,0,0,0,0,0,0,0,0,0,-0.0048,-0.0049,-0.0087,-0.0087,-0.0088,-0.0119,-0.0119,-0.0119,-0.0138,-0.0138,-0.0138,-0.0138,-0.0161,-0.0162,-0.0163,0,0,0,0,0,0,0,0,0,0,0,0,0,-0.0071,-0.0049,-0.0087,-0.0101,-0.0103,-0.0118,-0.0119,-0.0119,-0.0138,-0.0138,-0.0138,-0.0138,-0.0161,-0.0162,-0.0163,-0.0164,0,0,-0.0165,-0.0165,0,0,0,0,0,0,0,0,-0.0069,-0.0072,-0.0098,-0.01,-0.0102,-0.0125,-0.0114,-0.0134,-0.0138,-0.0124,-0.0138,-0.0138,-0.0149,-0.015,-0.0156,-0.0165,-0.0166,-0.0165,-0.0166,-0.0166,-0.0166,0,0,0,0,0,0,0,-0.0068,-0.0071,-0.0099,-0.0099,-0.0101,-0.0108,-0.0111,-0.0118,-0.0135,-0.0125,-0.0127,-0.0131,-0.0149,-0.0155,-0.0156,-0.0167,-0.0165,-0.0166,-0.0166,-0.0167,-0.0161,-0.016,0,0,0,0,0,0,-0.0064,-0.0069,-0.0098,-0.01,-0.0086,-0.0108,-0.0112,-0.0117,-0.0135,-0.0138,-0.0131,-0.0132,-0.0153,-0.0155,-0.0157,-0.0134,-0.0166,-0.0167,-0.0167,-0.0162,-0.0161,-0.016,0,0,0,0,0,0,-0.0063,-0.0066,-0.0097,-0.0086,-0.009,-0.0109,-0.0114,-0.0118,-0.0125,-0.0139,-0.0142,-0.0135,-0.0154,-0.0156,-0.0159,-0.0136,-0.0167,-0.0168,-0.0162,-0.0161,-0.0161,-0.0104,0,0,0,0,0,0,-0.0062,-0.0066,-0.0067,-0.0085,-0.0091,-0.0101,-0.0114,-0.0118,-0.0127,-0.0129,-0.0143,-0.0146,-0.0154,-0.0157,-0.0159,-0.0138,-0.0168,-0.0163,-0.0162,-0.0161,-0.0107,-0.0102,-0.0097,0,0,0,0,0,-0.006,-0.0059,-0.0067,-0.007,-0.0092,-0.01,-0.0103,-0.0117,-0.0127,-0.0125,-0.0135,-0.0145,-0.0151,-0.0158,-0.016,-0.0138,-0.0164,-0.0162,-0.0161,-0.0109,-0.0103,-0.0097,0,0,0,0,0,0,-0.0041,-0.0061,-0.007,-0.0075,-0.0085,-0.0104,-0.0105,-0.0117,-0.0125,-0.0127,-0.0142,-0.0144,-0.0136,-0.0149,-0.0155,-0.0134,-0.0158,-0.0157,-0.0117,-0.0111,-0.0107,-0.0094,-0.0169,0,0,0,0,0,-0.0038,-0.0042,-0.0061,-0.0064,-0.0069,-0.0088,-0.0093,-0.0104,-0.0115,-0.0119,-0.0129,-0.0136,-0.0132,-0.0132,-0.0136,-0.0128,-0.0147,-0.0115,-0.011,-0.0105,-0.0097,-0.0104,-0.0098,-0.0156,-0.0156,-0.0156,0,0,-0.0031,-0.0043,-0.0045,-0.006,-0.007,-0.0064,-0.0091,-0.0098,-0.0086,-0.0119,-0.0108,-0.0121,-0.0127,-0.0113,-0.0111,-0.0121,-0.0103,-0.0104,-0.01,-0.0094,-0.0102,-0.0096,-0.0091,-0.0155,-0.0155,-0.0155,0,0,-0.0014,-0.0029,-0.0026,-0.0031,-0.0045,-0.0051,-0.0052,-0.007,-0.0071,-0.0069,-0.0081,-0.0081,-0.0088,-0.0078,-0.0076,-0.0048,-0.0078,-0.0052,-0.0013,-0.0019,-0.0014,-0.001,-0.0042,-0.0041,-0.0047,-0.0047,-0.0046,0,-0.0004,-0.0003,-0.0024,-0.0019,-0.0015,-0.0042,-0.0028,-0.0029,-0.0043,-0.0035,-0.0058,-0.0054,-0.0065,-0.0031,-0.0022,-0.0034,-0.0056,-0.0033,-0.0012,-0.0008,-0.0005,-0.0038,-0.0038,-0.0044,-0.0044,-0.0044,-0.0045,0,0.0017,0.0021,0.0024,0.0026,0.0029,0.0034,0.003,0.0035,0.0024,0.0022,0.0037,0.0018,0.0021,0.0021,0.0007,0.0034,0.0004,-0.0006,-0.0025,0.0005,-0.0033,-0.0034,-0.004,-0.0041,-0.0041,-0.0042,0,0,0.0035,0.0038,0.004,0.0052,0.0053,0.0059,0.0085,0.0103,0.0123,0.0107,0.013,0.0132,0.0109,0.011,0.0094,0.009,0.0084,0.0052,0.005,0.0024,0.0049,0.0029,0.0025,0.0076,0.0077,0.0077,0.0008,0,0.0059,0.0081,0.0081,0.0114,0.0126,0.0125,0.0155,0.0169,0.017,0.0184,0.0173,0.0181,0.0149,0.0145,0.0139,0.0097,0.0086,0.0102,0.0021,0.0019,0.0001,0.0026,0.0079,0.0007,0.0007,0.0007,0.0007,0,0.0081,0.0094,0.0127,0.016,0.0166,0.0187,0.0228,0.0249,0.0269,0.0266,0.027,0.025,0.0247,0.0208,0.016,0.0167,0.0115,0.0078,0.0075,0.004,-0.0001,-0.0026,0.0005,0.0005,0.0005,0.0005,0.0005,0,0.0101,0.013,0.0159,0.0168,0.02,0.0224,0.0245,0.0274,0.0299,0.0313,0.0318,0.031,0.0292,0.0243,0.0159,0.0157,0.0091,0.0077,0.0013,0.0009,0.0021,0.0017,0.0049,0.0049,0.0049,0.0049,0.005,0,0.0124,0.0148,0.017,0.0184,0.0229,0.0245,0.0293,0.0312,0.0342,0.0371,0.0355,0.0361,0.0299,0.0251,0.0177,0.0087,0.0101,0.0024,-0.0,0.0042,0.0042,0.0018,0.0016,0.0047,0.0047,0.0048,0.0048,0,0.0134,0.0149,0.0182,0.0219,0.0235,0.0264,0.0316,0.0347,0.0371,0.0404,0.0408,0.0394,0.0333,0.026,0.017,0.0104,0.0024,-0.0012,0.0025,0.0002,-0.0062,-0.0061,-0.0085,-0.0086,-0.0087,-0.0088,-0.0089,0,0.0139,0.0154,0.0198,0.0218,0.0234,0.0279,0.031,0.0353,0.0386,0.0421,0.0434,0.0399,0.0373,0.0231,0.0151,0.0017,-0.0003,-0.0058,-0.0039,-0.0049,-0.0071,-0.0068,-0.0066,-0.009,-0.009,-0.009,-0.0091,0,0.014,0.0153,0.0176,0.0217,0.0251,0.0297,0.0344,0.0375,0.0423,0.0446,0.0452,0.0397,0.0328,0.0231,0.0126,0.003,-0.0025,-0.0067,-0.0066,-0.0049,-0.0055,-0.0075,-0.0072,-0.0094,-0.0093,-0.0093,-0.0093,0,0.0131,0.0144,0.0169,0.0209,0.025,0.0294,0.0331,0.0371,0.0409,0.0457,0.0453,0.0395,0.037,0.0236,0.0139,0.0047,0.0024,-0.0017,-0.0019,-0.0016,0.0027,0.0031,0.0005,0,0,0,0,0,0.0116,0.0127,0.016,0.02,0.0243,0.0271,0.0341,0.0379,0.0432,0.0438,0.0453,0.0394,0.0273,0.0227,0.0131,0.011,-0.0005,-0.0008,-0.0056,-0.0111,-0.0107,-0.0068,0,0,0,0,0,0,0.0102,0.0123,0.0146,0.018,0.0209,0.0259,0.0305,0.035,0.0365,0.0407,0.0351,0.0345,0.0232,0.032,0.0119,0.0094,0.0045,-0.0054,-0.0056,-0.0113,-0.0109,-0.0107,-0.0065,0,0,0,0,0]}]]